| time (UTC) | temp F | wind direction | speed MPH | gust MPH | rain 1hr in | rain 24hr in | rain mn in | humidity % | barometer mb |
| 20260507200057 | 58 | 244 | 10.0 | 18.0 | 0.00 | 0.00 | 0.00 | 51 | 1009.8 |
| 20260507194634 | 60 | 287 | 6.0 | 13.0 | 0.00 | 0.00 | 0.00 | 54 | 1010.0 |
| 20260507193056 | 56 | 277 | 8.0 | 11.0 | 0.00 | 0.00 | 0.00 | 57 | 1010.1 |
| 20260507191600 | 56 | 300 | 5.0 | 10.0 | 0.00 | 0.00 | 0.00 | 57 | 1010.2 |
| 20260507190106 | 56 | 296 | 6.0 | 12.0 | 0.00 | 0.00 | 0.00 | 58 | 1010.3 |
| 20260507184606 | 56 | 317 | 6.0 | 13.0 | 0.00 | 0.00 | 0.00 | 54 | 1010.4 |
| 20260507183059 | 58 | 289 | 8.0 | 13.0 | 0.00 | 0.00 | 0.00 | 51 | 1010.6 |
| 20260507181557 | 56 | 293 | 9.0 | 13.0 | 0.00 | 0.00 | 0.00 | 55 | 1010.6 |
| 20260507180106 | 56 | 278 | 10.0 | 15.0 | 0.00 | 0.00 | 0.00 | 53 | 1010.8 |
| 20260507174557 | 58 | 269 | 6.0 | 13.0 | 0.00 | 0.00 | 0.00 | 57 | 1011.0 |
| 20260507173102 | 57 | 276 | 7.0 | 14.0 | 0.00 | 0.00 | 0.00 | 55 | 1011.2 |
| 20260507171554 | 57 | 276 | 6.0 | 18.0 | 0.00 | 0.00 | 0.00 | 54 | 1011.4 |
| 20260507170056 | 56 | 245 | 5.0 | 15.0 | 0.00 | 0.00 | 0.00 | 58 | 1011.6 |
| 20260507164606 | 58 | 262 | 4.0 | 12.0 | 0.00 | 0.00 | 0.00 | 57 | 1011.6 |
| 20260507163106 | 56 | 260 | 3.0 | 15.0 | 0.00 | 0.00 | 0.00 | 60 | 1011.8 |
| 20260507161558 | 56 | 316 | 7.0 | 12.0 | 0.00 | 0.00 | 0.00 | 57 | 1012.1 |
| 20260507160056 | 55 | 231 | 3.0 | 13.0 | 0.00 | 0.00 | 0.00 | 61 | 1012.0 |
| 20260507154559 | 56 | 257 | 7.0 | 13.0 | 0.00 | 0.01 | 0.00 | 57 | 1012.3 |
| 20260507153058 | 56 | 262 | 7.0 | 14.0 | 0.00 | 0.01 | 0.00 | 54 | 1012.3 |
| 20260507151557 | 54 | 277 | 4.0 | 16.0 | 0.00 | 0.01 | 0.00 | 61 | 1012.5 |
| 20260507150100 | 54 | 245 | 4.0 | 10.0 | 0.00 | 0.01 | 0.00 | 65 | 1012.7 |
| 20260507144600 | 54 | 246 | 3.0 | 11.0 | 0.00 | 0.02 | 0.00 | 61 | 1012.9 |
| 20260507143107 | 53 | 249 | 6.0 | 11.0 | 0.00 | 0.02 | 0.00 | 61 | 1013.3 |
| 20260507141555 | 53 | 313 | 3.0 | 11.0 | 0.00 | 0.02 | 0.00 | 67 | 1013.3 |
| 20260507140057 | 52 | 300 | 3.0 | 7.0 | 0.00 | 0.02 | 0.00 | 67 | 1013.5 |
| 20260507134559 | 51 | 281 | 4.0 | 10.0 | 0.00 | 0.02 | 0.00 | 66 | 1013.6 |
| 20260507133100 | 50 | 221 | 5.0 | 9.0 | 0.00 | 0.02 | 0.00 | 70 | 1013.8 |
| 20260507131611 | 50 | 240 | 3.0 | 9.0 | 0.00 | 0.02 | 0.00 | 72 | 1013.7 |
| 20260507130058 | 49 | 229 | 4.0 | 8.0 | 0.00 | 0.02 | 0.00 | 75 | 1013.7 |
| 20260507124600 | 48 | 254 | 3.0 | 6.0 | 0.00 | 0.05 | 0.00 | 79 | 1013.7 |
| 20260507123059 | 47 | 250 | 3.0 | 6.0 | 0.00 | 0.05 | 0.00 | 83 | 1013.9 |
| 20260507121557 | 45 | 255 | 3.0 | 5.0 | 0.00 | 0.05 | 0.00 | 92 | 1013.8 |
| 20260507120058 | 43 | 224 | 0.0 | 3.0 | 0.00 | 0.05 | 0.00 | 95 | 1013.8 |
| 20260507114605 | 41 | 0 | 0.0 | 2.0 | 0.00 | 0.06 | 0.00 | 95 | 1013.7 |
| 20260507113100 | 39 | 0 | 0.0 | 0.0 | 0.00 | 0.06 | 0.00 | 95 | 1013.7 |
| 20260507111556 | 38 | 0 | 0.0 | 0.0 | 0.00 | 0.06 | 0.00 | 94 | 1013.3 |
| 20260507110056 | 36 | 0 | 0.0 | 0.0 | 0.00 | 0.06 | 0.00 | 94 | 1013.4 |
| 20260507104600 | 35 | 0 | 0.0 | 0.0 | 0.00 | 0.16 | 0.00 | 94 | 1013.3 |
| 20260507103055 | 36 | 0 | 0.0 | 0.0 | 0.00 | 0.16 | 0.00 | 93 | 1013.2 |
| 20260507101557 | 36 | 0 | 0.0 | 0.0 | 0.00 | 0.16 | 0.00 | 93 | 1013.0 |
| 20260507100055 | 37 | 0 | 0.0 | 0.0 | 0.00 | 0.16 | 0.00 | 93 | 1013.1 |
| 20260507094555 | 37 | 0 | 0.0 | 0.0 | 0.00 | 0.23 | 0.00 | 93 | 1012.9 |
| 20260507093059 | 38 | 0 | 0.0 | 0.0 | 0.00 | 0.23 | 0.00 | 92 | 1012.9 |
| 20260507091559 | 38 | 0 | 0.0 | 0.0 | 0.00 | 0.23 | 0.00 | 91 | 1013.1 |
| 20260507090101 | 39 | 0 | 0.0 | 0.0 | 0.00 | 0.23 | 0.00 | 90 | 1013.0 |
| 20260507084603 | 40 | 0 | 0.0 | 0.0 | 0.00 | 0.26 | 0.00 | 89 | 1013.1 |
| 20260507083104 | 40 | 0 | 0.0 | 0.0 | 0.00 | 0.26 | 0.00 | 88 | 1013.2 |
| 20260507081556 | 42 | 0 | 0.0 | 0.0 | 0.00 | 0.26 | 0.00 | 84 | 1013.0 |
| 20260507080115 | 43 | 0 | 0.0 | 0.0 | 0.00 | 0.26 | 0.00 | 80 | 1012.9 |
| 20260507074602 | 43 | 0 | 0.0 | 1.0 | 0.00 | 0.28 | 0.00 | 82 | 1012.9 |
| 20260507073100 | 44 | 354 | 0.0 | 2.0 | 0.00 | 0.28 | 0.00 | 80 | 1013.0 |
| 20260507071610 | 45 | 0 | 0.0 | 0.0 | 0.00 | 0.28 | 0.00 | 83 | 1012.9 |
| 20260507070057 | 45 | 0 | 0.0 | 1.0 | 0.00 | 0.28 | 0.00 | 84 | 1013.2 |
| 20260507064559 | 45 | 0 | 0.0 | 1.0 | 0.00 | 0.32 | 0.00 | 82 | 1013.1 |
| 20260507063056 | 46 | 9 | 1.0 | 4.0 | 0.00 | 0.32 | 0.00 | 80 | 1013.1 |
| 20260507061558 | 46 | 1 | 1.0 | 3.0 | 0.00 | 0.32 | 0.00 | 77 | 1013.3 |
| 20260507060057 | 46 | 0 | 0.0 | 0.0 | 0.00 | 0.32 | 0.00 | 75 | 1013.5 |
| 20260507054554 | 47 | 0 | 0.0 | 0.0 | 0.00 | 0.36 | 0.00 | 74 | 1013.5 |
| 20260507053120 | 46 | 0 | 0.0 | 2.0 | 0.00 | 0.36 | 0.00 | 77 | 1013.8 |
| 20260507051605 | 46 | 1 | 1.0 | 3.0 | 0.00 | 0.36 | 0.00 | 79 | 1013.7 |
| 20260507050059 | 47 | 0 | 0.0 | 0.0 | 0.00 | 0.36 | 0.00 | 76 | 1013.7 |
| 20260507044557 | 47 | 0 | 0.0 | 2.0 | 0.00 | 0.37 | 0.00 | 78 | 1013.8 |
| 20260507043054 | 47 | 356 | 1.0 | 3.0 | 0.00 | 0.37 | 0.00 | 78 | 1013.7 |
| 20260507041557 | 47 | 352 | 2.0 | 3.0 | 0.00 | 0.37 | 0.00 | 78 | 1013.8 |
| 20260507040100 | 47 | 1 | 1.0 | 3.0 | 0.00 | 0.37 | 0.00 | 79 | 1013.7 |
| 20260507034556 | 48 | 340 | 2.0 | 4.0 | 0.00 | 0.37 | 0.37 | 76 | 1013.7 |
| 20260507033055 | 48 | 0 | 0.0 | 3.0 | 0.00 | 0.37 | 0.37 | 78 | 1013.6 |
| 20260507031558 | 48 | 359 | 2.0 | 3.0 | 0.00 | 0.37 | 0.37 | 80 | 1013.2 |
| 20260507030057 | 48 | 360 | 2.0 | 3.0 | 0.00 | 0.37 | 0.37 | 80 | 1013.2 |
| 20260507024603 | 48 | 0 | 0.0 | 3.0 | 0.00 | 0.37 | 0.37 | 78 | 1013.2 |
| 20260507023054 | 48 | 4 | 2.0 | 7.0 | 0.00 | 0.37 | 0.37 | 78 | 1013.2 |
| 20260507021558 | 49 | 359 | 2.0 | 6.0 | 0.00 | 0.37 | 0.37 | 78 | 1013.0 |
| 20260507020057 | 49 | 1 | 2.0 | 4.0 | 0.00 | 0.37 | 0.37 | 80 | 1012.7 |
| 20260507014612 | 49 | 1 | 2.0 | 7.0 | 0.00 | 0.37 | 0.37 | 78 | 1012.5 |
| 20260507013056 | 50 | 357 | 4.0 | 10.0 | 0.00 | 0.37 | 0.37 | 77 | 1012.3 |
| 20260507011604 | 50 | 15 | 5.0 | 13.0 | 0.00 | 0.37 | 0.37 | 79 | 1012.4 |
| 20260507010104 | 51 | 360 | 3.0 | 5.0 | 0.00 | 0.37 | 0.37 | 82 | 1012.5 |
| 20260507004612 | 51 | 359 | 2.0 | 4.0 | 0.00 | 0.37 | 0.37 | 83 | 1012.6 |
| 20260507003059 | 51 | 0 | 0.0 | 0.0 | 0.00 | 0.37 | 0.37 | 87 | 1012.7 |
| 20260507001557 | 52 | 0 | 0.0 | 3.0 | 0.00 | 0.37 | 0.37 | 86 | 1013.0 |
| 20260507000104 | 51 | 0 | 0.0 | 1.0 | 0.00 | 0.37 | 0.37 | 85 | 1012.3 |
| 20260506234606 | 52 | 0 | 0.0 | 2.0 | 0.00 | 0.37 | 0.37 | 86 | 1012.3 |
| 20260506233059 | 52 | 0 | 1.0 | 3.0 | 0.00 | 0.37 | 0.37 | 85 | 1012.2 |
| 20260506231558 | 52 | 314 | 1.0 | 4.0 | 0.00 | 0.37 | 0.37 | 83 | 1012.0 |
| 20260506230059 | 52 | 0 | 1.0 | 3.0 | 0.00 | 0.37 | 0.37 | 84 | 1011.7 |
| 20260506224602 | 53 | 312 | 0.0 | 0.0 | 0.00 | 0.37 | 0.37 | 84 | 1011.5 |
| 20260506223110 | 53 | 0 | 0.0 | 3.0 | 0.00 | 0.37 | 0.37 | 83 | 1011.5 |
| 20260506221559 | 52 | 0 | 0.0 | 3.0 | 0.00 | 0.37 | 0.37 | 84 | 1011.6 |
| 20260506220059 | 52 | 359 | 1.0 | 5.0 | 0.00 | 0.37 | 0.37 | 84 | 1011.6 |
| 20260506214605 | 52 | 354 | 2.0 | 6.0 | 0.00 | 0.37 | 0.37 | 83 | 1011.4 |
| 20260506213056 | 52 | 335 | 4.0 | 7.0 | 0.00 | 0.37 | 0.37 | 82 | 1011.2 |
| 20260506211605 | 52 | 345 | 3.0 | 7.0 | 0.00 | 0.37 | 0.37 | 82 | 1010.9 |
| 20260506210058 | 52 | 334 | 5.0 | 12.0 | 0.00 | 0.37 | 0.37 | 84 | 1010.8 |
| 20260506204600 | 52 | 327 | 6.0 | 13.0 | 0.00 | 0.37 | 0.37 | 84 | 1010.7 |
| 20260506203056 | 52 | 8 | 5.0 | 10.0 | 0.00 | 0.37 | 0.37 | 84 | 1010.4 |
| 20260506201556 | 53 | 1 | 7.0 | 12.0 | 0.00 | 0.37 | 0.37 | 84 | 1010.2 |